This is the latest recevied weather packets stored in our database for station/object HA2KAB-10. If no packets are shown the sender has not sent any weather packets the latest 10 day(s).
| Time | Temp. | Humidity | Pressure | Rain* | Wind** | Luminosity | Snow |
|---|---|---|---|---|---|---|---|
| 1788483116 | 25.56° C | 35% | 1025.7 hPa | - | - | - | - |
| 1788479576 | 26.11° C | 34% | 1025.8 hPa | - | - | - | - |
| 1788476048 | 26.11° C | 34% | 1025.8 hPa | - | - | - | - |
| 1788472496 | 26.11° C | 33% | 1025.6 hPa | - | - | - | - |
| 1788444175 | 27.22° C | 32% | 1025 hPa | - | - | - | - |
| 1788440635 | 27.22° C | 32% | 1025.4 hPa | - | - | - | - |
| 1788437094 | 27.22° C | 32% | 1025.7 hPa | - | - | - | - |
| 1788433554 | 26.67° C | 32% | 1026 hPa | - | - | - | - |
| 1788430014 | 26.67° C | 33% | 1026.4 hPa | - | - | - | - |
| 1788426479 | 26.11° C | - | - | - | - | - | - |
| 1788426474 | 26.11° C | 34% | 1026.8 hPa | - | - | - | - |
| 1788422934 | 26.67° C | 33% | 1027 hPa | - | - | - | - |
| 1788419394 | 26.11° C | 34% | 1026.8 hPa | - | - | - | - |
| 1788415862 | 26.11° C | 34% | 1026.5 hPa | - | - | - | - |
| 1788415854 | 26.11° C | 34% | 1026.5 hPa | - | - | - | - |
| 1788412320 | 26.11° C | 33% | 1026.1 hPa | - | - | - | - |
| 1788412313 | 26.11° C | 33% | 1026.1 hPa | - | - | - | - |
| 1788408773 | 25.56° C | 33% | 1025.9 hPa | - | - | - | - |
| 1788405232 | 25.56° C | 33% | 1025.5 hPa | - | - | - | - |
| 1788403797 | 26.11° C | 33% | 1025.6 hPa | - | - | - | - |
| 1788371936 | 26.67° C | 33% | 1025.2 hPa | - | - | - | - |
| 1788354235 | 27.78° C | 32% | 1025.8 hPa | - | - | - | - |
| 1788347153 | 27.22° C | 33% | 1027.2 hPa | - | - | - | - |
| 1788343613 | 27.22° C | 33% | 1027.6 hPa | - | - | - | - |
| 1788340073 | 27.22° C | 34% | 1027.9 hPa | - | - | - | - |
* Rain since midnight (hover to see other rain measurements)
** Current wind speed in m/s (hover to see current wind gust speed)